This is the latest recevied weather packets stored in our database for station/object KB1FFS. If no packets are shown the sender has not sent any weather packets the latest 10 day(s).
| Time | Temp. | Humidity | Pressure | Rain* | Wind** | Luminosity | Snow |
|---|---|---|---|---|---|---|---|
| 1777840959 | 30° C | 28% | 1018.4 hPa | 0 mm | - | 797 W/m² | - |
| 1777840656 | 30.56° C | 27% | 1018.4 hPa | 0 mm | - | 823 W/m² | - |
| 1777840354 | 30.56° C | 27% | 1018.3 hPa | 0 mm | - | 638 W/m² | - |
| 1777840051 | 30.56° C | 27% | 1018.7 hPa | 0 mm | - | 894 W/m² | - |
| 1777839749 | 30.56° C | 27% | 1018.5 hPa | 0 mm | - | 680 W/m² | - |
| 1777839446 | 30.56° C | 27% | 1018.7 hPa | 0 mm | - | 849 W/m² | - |
| 1777839144 | 30.56° C | 27% | 1018.9 hPa | 0 mm | - | 860 W/m² | - |
| 1777838839 | 30.56° C | 26% | 1019.2 hPa | 0 mm | - | 844 W/m² | - |
| 1777838536 | 30.56° C | 26% | 1019.1 hPa | 0 mm | - | 864 W/m² | - |
| 1777838233 | 30.56° C | 28% | 1019.2 hPa | 0 mm | - | 861 W/m² | - |
| 1777837930 | 30.56° C | 27% | 1019.2 hPa | 0 mm | - | 880 W/m² | - |
| 1777837627 | 30.56° C | 28% | 1019.2 hPa | 0 mm | - | 887 W/m² | - |
| 1777837323 | 31.11° C | 26% | 1019.4 hPa | 0 mm | - | 893 W/m² | - |
| 1777837019 | 30.56° C | 29% | 1019.5 hPa | 0 mm | - | 907 W/m² | - |
| 1777836715 | 30.56° C | 28% | 1019.6 hPa | 0 mm | - | 921 W/m² | - |
| 1777836411 | 30.56° C | 31% | 1019.6 hPa | 0 mm | - | 930 W/m² | - |
| 1777836107 | 30° C | 30% | 1019.7 hPa | 0 mm | - | 934 W/m² | - |
| 1777835803 | 30° C | 32% | 1019.8 hPa | 0 mm | - | 944 W/m² | - |
| 1777835500 | 30° C | 31% | 1020 hPa | 0 mm | - | 1024 W/m² | - |
| 1777835198 | 30° C | 30% | 1019.8 hPa | 0 mm | - | 970 W/m² | - |
| 1777834894 | 30° C | 31% | 1020 hPa | 0 mm | - | 978 W/m² | - |
| 1777834591 | 30° C | 31% | 1020.1 hPa | 0 mm | - | 955 W/m² | - |
| 1777834286 | 30° C | 32% | 1020.2 hPa | 0 mm | - | 955 W/m² | - |
| 1777833981 | 29.44° C | 33% | 1020.3 hPa | 0 mm | - | 942 W/m² | - |
| 1777833678 | 29.44° C | 34% | 1020.6 hPa | 0 mm | - | 951 W/m² | - |
* Rain latest hour (hover to see other rain measurements)
** Current wind speed in m/s (hover to see current wind gust speed)